Location: Poprad
(0.0000°N, 20.3000°E)
Time: 13:12:11
(UTC+02:00)

Daily predictions for brighter satellites

Satellite Brightness Start Highest point End
(mag) Time Altitude Azimuth Time Altitude Azimuth Time Altitude Azimuth
Cosmos 2279 Rocket 4.5 18:56:14 10° SSE 19:01:55 38° E 19:07:33 10° NNE
Cosmos 1606 Rocket 4.5 19:04:01 10° NNE 19:07:49 29° E 19:11:36 10° SSE
Centaur AC-102 4.3 18:52:15 10° WNW 19:08:06 74° NNE 19:12:57 10° ESE
Ariane H10+ 2.4 18:58:54 10° W 19:10:07 65° S 19:13:44 10° E
Delta 2 Rocket 3.5 19:08:24 10° SSW 19:11:51 35° SE 19:15:02 10° ENE
Cosmos 1092 Rocket 4.2 19:11:43 10° NNE 19:17:34 47° E 19:23:25 10° SSE
GPS 2-14 Rocket1 3.4 19:14:04 10° W 19:17:52 52° NNW 19:21:35 10° NE
CZ-4 R/B 2.4 19:14:50 10° S 19:18:42 46° WSW 19:22:28 10° NNW
Ariane H10+ 4.0 19:05:04 10° W 19:20:05 77° S 19:24:52 11° E
Delta 2 Rocket 4.3 19:16:37 10° WNW 19:22:28 54° SSW 19:28:09 12° SE
Cosmos 972 4.5 19:20:11 10° S 19:25:37 64° E 19:30:34 10° NNE
Landsat 4 3.6 19:26:10 10° NNE 19:29:57 82° ESE 19:33:46 10° S
SL-16 R/B 2.2 19:26:26 10° NNW 19:32:06 82° ENE 19:37:47 10° SSE
Cosmos 2228 3.6 19:29:12 10° NNE 19:33:14 37° E 19:36:56 12° SSE
Aureole 1 Rocket 2.0 19:30:51 10° S 19:33:54 58° ESE 19:36:48 10° NNE
SME Rocket 2.8 19:31:23 10° SSE 19:35:38 76° ENE 19:39:19 10° N
Cosmos 2237 Rocket 4.3 19:32:05 10° NW 19:36:39 25° WSW 19:41:14 10° SSW
Cosmos 1805 3.7 19:33:28 10° NNE 19:37:07 40° E 19:39:56 15° SSE
H-2A R/B 2.7 19:34:33 10° S 19:38:27 90° WSW 19:42:18 10° N
Cosmos 2285 Rocket 4.2 19:33:40 10° S 19:39:45 47° ESE 19:45:45 10° NNE
Ariane H10-3 2.9 19:26:37 10° W 19:42:27 57° S 19:45:05 22° ESE
Ariane H10 1.9 19:41:14 10° WNW 19:43:42 38° N 19:44:51 22° ENE
Envisat 3.9 19:43:43 21° ESE 19:45:53 29° ENE 19:50:12 10° NNE
DELTA 2 R/B (1) 4.0 19:41:05 10° WNW 19:46:30 56° SW 19:50:27 18° SSE
Cosmos 2058 Rocket 3.2 19:43:05 10° N 19:47:18 51° E 19:50:14 19° SSE
Cosmos 1766 3.3 19:43:45 10° N 19:47:39 78° W 19:51:33 10° S
Cosmos 1726 Rocket 3.6 19:46:50 10° N 19:51:14 83° W 19:55:37 10° S
Cosmos 1953 4.1 19:49:55 10° NE 19:51:32 16° ENE 19:51:32 16° ENE
Meteor 2-5 Rocket 4.2 19:48:11 10° SSE 19:53:41 40° E 19:59:11 10° NNE
Cosmos 1400 Rocket 2.7 19:49:38 10° S 19:53:44 78° E 19:57:47 10° N
Thor Agena Rocket 3.4 19:49:31 10° NNE 19:54:28 61° ESE 19:59:27 10° S
SWIFT 4.1 19:51:32 10° NNW 19:54:54 22° NNE 19:56:50 17° ENE
CZ-2D R/B 4.1 19:56:39 30° ENE 19:56:39 30° ENE 20:00:02 10° NNE
BREEZE-M DEB (TANK) 1.9 19:56:17 10° NW 19:58:35 81° NE 20:00:01 35° SE
Cosmos 1048 Rocket 4.2 19:54:10 10° SSW 19:59:21 71° WNW 20:04:36 10° N
IUS-7 SRM-1 4.3 19:37:17 10° WSW 20:00:19 89° S 20:03:18 20° ENE
Cosmos 1655 Rocket 4.3 19:59:20 10° NNE 20:05:12 44° E 20:07:33 31° SE
Cosmos 1603 4.1 20:02:46 10° N 20:08:12 44° ENE 20:09:32 38° ESE
FREGAT/IRIS 2.6 20:08:54 76° W 20:08:54 76° W 20:11:46 10° NNW
OAO 2 Rocket 3.7 20:04:40 10° NW 20:09:49 53° NE 20:11:19 40° E
BLOCK DM-SL R/B 3.3 20:05:14 10° W 20:11:42 81° S 20:13:39 38° E
Cosmos 1470 4.3 20:11:57 10° NNE 20:13:46 23° NE 20:13:46 23° NE
Cosmos 1733 3.6 20:18:03 10° N 20:20:58 51° NNE 20:20:58 51° NNE
GOES 2 Rocket 3.1 20:18:54 10° WNW 20:23:03 56° SSW 20:23:09 56° SSW
GPS 2-17 Rocket1 3.4 20:19:12 10° NW 20:23:53 53° NNE 20:24:19 50° NE
ASTRO E2 3.6 20:21:41 10° NW 20:24:53 38° N 20:24:53 38° N
GPS 2-15 Rocket1 4.1 20:23:35 10° NW 20:27:55 34° NNE 20:28:15 33° NNE
BREEZE M DEB (TANK) 4.3 20:34:28 10° NNW 20:35:24 17° NNW 20:35:24 17° NNW
Cosmos 1371 Rocket 4.3 20:32:59 10° NNW 20:38:04 62° WSW 20:39:12 49° SSW
Cosmos 1844 Rocket 4.2 20:37:38 10° SW 20:42:45 35° WNW 20:47:52 10° N
Cosmos 1943 3.8 20:41:33 10° N 20:45:37 44° NNE 20:45:37 44° NNE
Ariane H10 4.4 19:26:44 10° W 20:47:38 79° S 20:51:13 50° E
Cosmos 2056 Rocket 3.9 20:45:59 10° NNW 20:51:09 59° WSW 20:51:20 59° WSW
Cosmos 494 Rocket 4.5 20:49:59 39° SW 20:51:39 56° WNW 20:56:46 10° N
CZ-3C R/B 4.4 20:52:57 10° SW 21:02:17 60° SSE 22:41:21 10° ENE
NOSS 3-4 (A) 4.3 21:03:33 10° SW 21:09:35 47° WNW 21:15:27 10° N
NOSS 3-4 (C) 4.2 21:03:39 10° SW 21:09:40 48° WNW 21:15:32 10° N
Iridium 4 Rocket 4.5 21:11:16 50° NW 21:11:16 50° NW 21:15:40 10° NNW
Resurs 01 Rocket 4.3 21:14:30 14° NNW 21:14:30 14° NNW 21:15:06 10° NNW
ARIANE 5 R/B 3.7 21:06:07 10° WSW 21:14:28 33° SW 21:14:28 33° SW
ARIANE 5 DEB (SYLDA) 4.3 21:10:56 10° W 21:27:18 66° W 21:27:18 66° W
